Погода в Корме

Беларусь     53°07′43″N   30°48′15″E
темп.,
°C
ветер,
м/с
пор.,
м/с
влажн.,
%
обл.,
%
осадки,
мм/ч
давл.,
гПа
погр.,
м
13 апреля, вт
вт1300:00+9ю118997 0.0 102110
03:00+9ссз1190100 0.0 102110
06:00+9всв2288100 0.0 102116
09:00+11вюв2381100 0.0 1020238
12:00+11юв3587100 0.1 1020300
15:00+12ю478392 0.1 1019533
18:00+13ю3575100 0.0 1018439
21:00+11юв2589100 0.0 1018119
14 апреля, ср
ср1400:00+10ююв248995 0.0 101799
03:00+8ююв349357 0.0 101782
06:00+9ююв259089 0.0 1016129
09:00+9юв3789100 0.0 1016322
12:00+14ююв566368 0.1 10161040
15:00+15ююв6756100 0.6 10151398
18:00+12ююв2471100 0.5 1015178
21:00+10вюв2276100 0.5 101511
15 апреля, чт
чт1500:00+9вюв2282100 0.0 101512
03:00+8вюв1184100 0.0 101510
06:00+8ссв2287100 0.0 101411
09:00+11св2382100 0.0 1014277
12:00+10всв2489100 0.3 1014321
15:00+10ссв369170 0.8 1013333
18:00+12св478170 0.7 1012464
21:00+9св5118745 1.0 1013375
16 апреля, пт
пт1600:00+8всв4994100 0.1 1012259
03:00+8всв4994100 0.4 1012241
06:00+8всв379493 0.1 1012168
09:00+8св2596100 1.8 1013222
12:00+11всв457577 5.1 1013716
15:00+11всв598310 6.3 1014537
18:00+12в4676100 1.8 1014582
21:00+9ююв228313 2.5 101525
17 апреля, сб
сб1700:00+7юв34885 0.0 101664
03:00+5юв23905 0.0 101852
06:00+4всв22915 0.0 101933
09:00+8вюв467412 0.0 1020480
12:00+11в3554100 0.0 10201114
15:00+12вюв3554100 0.1 10201357
18:00+8юз3493100 5.7 1020313
21:00+7юз2394100 7.7 1020169